Location: Foligno
(42.9600°N, 12.7050°E)
Time: 06:26:26
(UTC+01:00)

ISS - Pass Details

Date: 16 November 2018
Orbit: 402 x 408 km, 51.6° (Epoch: 16 November)

Event Time Altitude Azimuth Distance (km) Brightness Sun altitude
Exits shadow 05:38:44 12° 217° (SW) 1,344 -1.4 -15.3°
Drops below altitude 10° 05:39:32 10° 203° (SSW) 1,453 -1.1 -15.2°
Sets 05:42:32 0° 172° (S) 2,308 0.3 -14.7°
